Location: Dampvalley
(47.9094°N, 6.1967°E)
Time: 04:20:24
(UTC+00:00)

AO-109 - Pass Details

Date: 04 December 2021
Orbit: 478 x 516 km, 60.7° (Epoch: 18 January)

Event Time Altitude Azimuth Distance (km) Brightness Sun altitude
Exits shadow 06:16:40 11° 286° (WNW) 1,611 ? -8.3°
Maximum altitude 06:19:21 21° 238° (WSW) 1,131 ? -7.9°
Drops below altitude 10° 06:22:05 10° 189° (S) 1,627 ? -7.4°
Sets 06:24:38 0° 172° (S) 2,523 ? -7.1°
